Location: Palomar Mountain Lodge
(33.3110°N, 116.8495°W)
Time: 13:14:33
(UTC-08:00)

Cosmos 372 Rocket - Pass Details

Date: 13 December 2025
Orbit: 734 x 762 km, 74.1° (Epoch: 21 January)

Event Time Altitude Azimuth Distance (km) Brightness Sun altitude
Rises 17:23:51 0° 197° (SSW) 3,188 7.8 -9.0°
Reaches altitude 10° 17:26:13 10° 199° (SSW) 2,263 7.0 -9.4°
Maximum altitude 17:31:21 82° 286° (WNW) 758 4.1 -10.4°
Drops below altitude 10° 17:36:29 10° 15° (NNE) 2,257 6.1 -11.4°
Sets 17:38:50 0° 16° (NNE) 3,180 6.9 -11.9°
Enters shadow 17:38:52 - 16° (NNE) 3,193 6.9 -11.9°
